Weather History for YBCS - November, 2011

Change the Weather History Date:

Saturday, November 5, 2011

  Actual Average Record
Temperature  
Mean Temperature 78 °F -  
Max Temperature 86 °F 87 °F 89 °F (2012)
Min Temperature 70 °F 72 °F 66 °F (2013)
Cooling Degree Days 13    
Growing Degree Days 28 (Base 50)    
Moisture  
Dew Point 70 °F    
Average Humidity 80    
Maximum Humidity 100    
Minimum Humidity 55    
Precipitation  
Precipitation 1.14 in 0.15 in - ()
Sea Level Pressure  
Sea Level Pressure 29.87 in    
Wind  
Wind Speed 9 mph ()    
Max Wind Speed 15 mph    
Max Gust Speed -    
Visibility 6.1 miles    
Events Rain    
Averages and records for this station are not official NWS values.
T = Trace of Precipitation, MM = Missing Value Source: Averaged Metar Reports

Daily Weather History Graph

Daily Weather History Graph

Search for Another Location

Airport or City:

Trip Planner

Search our weather history database for the weather conditions in past years. The results will help you decide how hot, cold, wet, or windy it might be!

Date:

Astronomy

Nov. 05, 2011 Rise Set
Actual Time 5:37 AM AEST 6:23 PM AEST
Civil Twilight 5:15 AM AEST 6:46 PM AEST
Nautical Twilight 4:48 AM AEST 7:12 PM AEST
Astronomical Twilight 4:21 AM AEST 7:39 PM AEST
Moon 1:58 PM AEST (11/5) 1:46 AM AEST (11/5)
Length of Visible Light 13h 31m
Length of Day
12h 45m
Waxing Gibbous, 73% of the Moon is Illuminated
Nov 5
Waxing Gibbous
Nov 11
Full
Nov 19
Last Quarter
Nov 25
New
Dec 2
First Quarter

Hourly Weather History & Observations

Time (AEST) Temp. Heat Index Dew Point Humidity Pressure Visibility Wind Dir Wind Speed Gust Speed Precip Events Conditions
12:00 AM 75 °F - 66 °F 65% 29.90 in 19 mi South 10.4 mph - -   Partly Cloudy
12:00 AM 75.2 °F - 66.2 °F 73% 29.89 in - South 10.4 mph - N/A   Clear
12:30 AM 73.4 °F - 66.2 °F 78% 29.89 in - SE 8.1 mph - N/A   Clear
1:00 AM 72 °F - 67 °F 78% 29.88 in - SE 8.1 mph - -  
1:00 AM 73.4 °F - 66.2 °F 78% 29.86 in - SE 8.1 mph - N/A   Clear
1:30 AM 71.6 °F - 66.2 °F 83% 29.86 in - SE 10.4 mph - N/A   Clear
2:00 AM 71.6 °F - 66.2 °F 83% 29.86 in - SE 10.4 mph - N/A   Clear
2:30 AM 71.6 °F - 66.2 °F 83% 29.86 in 6.2 mi SE 10.4 mph - N/A   Scattered Clouds
3:00 AM 72 °F - 66 °F 75% 29.85 in 19 mi SE 6.9 mph - -   Partly Cloudy
3:00 AM 71.6 °F - 66.2 °F 83% 29.83 in 6.2 mi SE 6.9 mph - N/A   Mostly Cloudy
3:30 AM 71.6 °F - 66.2 °F 83% 29.86 in 6.2 mi South 4.6 mph - N/A   Mostly Cloudy
4:00 AM 74 °F - 65 °F 67% 29.86 in - SE 8.1 mph - -  
4:00 AM 73.4 °F - 64.4 °F 73% 29.86 in 6.2 mi SE 8.1 mph - N/A   Mostly Cloudy
4:30 AM 73.4 °F - 66.2 °F 78% 29.86 in 5.6 mi SSE 9.2 mph - N/A Rain Light Rain
4:39 AM 71.6 °F - 66.2 °F 83% 29.86 in 4.3 mi SSE 9.2 mph - N/A Rain Light Rain
4:45 AM 71.6 °F - 66.2 °F 83% 29.86 in 2.8 mi SSE 9.2 mph - N/A Rain Light Rain
5:00 AM 69.8 °F - 68.0 °F 94% 29.86 in 2.5 mi SSE 10.4 mph - N/A Rain Light Rain
5:10 AM 69.8 °F - 68.0 °F 94% 29.86 in 1.6 mi SSE 9.2 mph - N/A Rain Light Rain
5:13 AM 69.8 °F - 68.0 °F 94% 29.86 in 1.6 mi SSE 8.1 mph - N/A Rain Light Rain
5:30 AM 69.8 °F - 68.0 °F 94% 29.89 in 4.3 mi North 5.8 mph - N/A Rain Light Rain
5:52 AM 71.6 °F - 69.8 °F 94% 29.89 in 6.2 mi South 3.5 mph - N/A Rain Light Rain
6:00 AM 71 °F - 69 °F 93% 29.90 in 4 mi SE 5.8 mph - - Rain Light Drizzle
6:00 AM 71.6 °F - 69.8 °F 94% 29.89 in 3.7 mi SE 5.8 mph - N/A   Light Drizzle
6:20 AM 71.6 °F - 69.8 °F 94% 29.89 in 6.2 mi North 5.8 mph - N/A   Mostly Cloudy
6:30 AM 71.6 °F - 69.8 °F 94% 29.89 in 6.2 mi North 5.8 mph - N/A   Mostly Cloudy
7:00 AM 72 °F - 70 °F 90% 29.92 in - SSE 11.5 mph - -  
7:00 AM 71.6 °F - 69.8 °F 94% 29.92 in 6.2 mi SSE 11.5 mph - N/A   Mostly Cloudy
7:30 AM 75.2 °F - 69.8 °F 83% 29.92 in 6.2 mi SE 10.4 mph - N/A   Mostly Cloudy
8:00 AM 77.0 °F - 71.6 °F 83% 29.92 in 6.2 mi SE 11.5 mph - N/A   Partly Cloudy
8:30 AM 78.8 °F - 69.8 °F 74% 29.92 in 6.2 mi South 9.2 mph - N/A   Partly Cloudy
9:00 AM 80 °F - 71 °F 66% 29.93 in 19 mi South 8.1 mph - -   Partly Cloudy
9:00 AM 80.6 °F 83.9 °F 69.8 °F 70% 29.92 in 6.2 mi South 8.1 mph - N/A   Partly Cloudy
9:30 AM 82.4 °F 87.2 °F 71.6 °F 70% 29.92 in 6.2 mi South 10.4 mph - N/A   Partly Cloudy
10:00 AM 82 °F - 71 °F 63% 29.93 in - SE 6.9 mph - -  
10:00 AM 82.4 °F 87.2 °F 71.6 °F 70% 29.92 in 6.2 mi SE 6.9 mph - N/A   Partly Cloudy
10:30 AM 84.2 °F 89.6 °F 71.6 °F 66% 29.89 in 6.2 mi SE 8.1 mph - N/A   Partly Cloudy
11:00 AM 84.2 °F 89.6 °F 71.6 °F 66% 29.89 in 6.2 mi SE 8.1 mph - N/A   Partly Cloudy
11:30 AM 84.2 °F 89.6 °F 71.6 °F 66% 29.89 in 6.2 mi ENE 8.1 mph - N/A   Partly Cloudy
12:00 PM 86 °F - 72 °F 55% 29.88 in 19 mi NE 12.7 mph - -   Scattered Clouds
12:00 PM 86.0 °F 91.8 °F 71.6 °F 62% 29.89 in 6.2 mi NE 12.7 mph - N/A   Partly Cloudy
12:30 PM 86.0 °F 91.8 °F 71.6 °F 62% 29.86 in 6.2 mi NE 11.5 mph - N/A   Partly Cloudy
1:00 PM 85 °F - 72 °F 58% 29.86 in - ENE 12.7 mph - -  
1:00 PM 86.0 °F 91.8 °F 71.6 °F 62% 29.86 in 6.2 mi ENE 12.7 mph - N/A   Scattered Clouds
1:30 PM 86.0 °F 93.4 °F 73.4 °F 66% 29.83 in 6.2 mi NE 12.7 mph - N/A   Partly Cloudy
2:00 PM 86.0 °F 93.4 °F 73.4 °F 66% 29.83 in 6.2 mi ENE 13.8 mph - N/A   Partly Cloudy
2:30 PM 84.2 °F 90.9 °F 73.4 °F 70% 29.83 in 6.2 mi ENE 15.0 mph - N/A   Partly Cloudy
3:00 PM 85 °F - 71 °F 55% 29.82 in 19 mi East 13.8 mph - -   Partly Cloudy
3:00 PM 86.0 °F 91.8 °F 71.6 °F 62% 29.80 in 6.2 mi East 13.8 mph - N/A   Partly Cloudy
3:30 PM 84.2 °F 89.6 °F 71.6 °F 66% 29.80 in 6.2 mi ENE 13.8 mph - N/A   Partly Cloudy
4:00 PM 84.2 °F 88.4 °F 69.8 °F 62% 29.80 in 6.2 mi ENE 15.0 mph - N/A   Partly Cloudy
4:30 PM 82.4 °F 87.2 °F 71.6 °F 70% 29.80 in 6.2 mi East 13.8 mph - N/A   Scattered Clouds
5:00 PM 80.6 °F 84.6 °F 71.6 °F 74% 29.83 in 6.2 mi East 12.7 mph - N/A   Scattered Clouds
5:30 PM 78.8 °F - 71.6 °F 78% 29.83 in 6.2 mi East 15.0 mph - N/A   Scattered Clouds
6:00 PM 80 °F - 71 °F 67% 29.84 in - East 10.4 mph - -  
6:00 PM 80.6 °F 84.6 °F 71.6 °F 74% 29.83 in 5.6 mi East 10.4 mph - N/A Rain Light Rain Showers
6:30 PM 77.0 °F - 71.6 °F 83% 29.86 in 4.3 mi SE 10.4 mph - N/A Rain Light Rain Showers
7:00 PM 75 °F - 73 °F 92% 29.87 in - SSE 11.5 mph - -  
7:00 PM 75.2 °F - 73.4 °F 94% 29.86 in 4.3 mi SSE 11.5 mph - N/A Rain Light Rain Showers
7:11 PM 75.2 °F - 73.4 °F 94% 29.86 in 2.5 mi South 12.7 mph - N/A Rain Rain Showers
7:25 PM 73.4 °F - 73.4 °F 100% 29.86 in 1.2 mi South 12.7 mph - N/A Rain Rain Showers
7:30 PM 73.4 °F - 73.4 °F 100% 29.86 in 1.2 mi South 11.5 mph - N/A Rain Rain Showers
7:42 PM 73.4 °F - 73.4 °F 100% 29.86 in 0.6 mi ESE 12.7 mph - N/A Rain Rain Showers
8:00 PM 75.2 °F - 73.4 °F 94% 29.86 in 0.9 mi South 9.2 mph - N/A Rain Rain Showers
8:11 PM 75.2 °F - 73.4 °F 94% 29.86 in 3.1 mi South 8.1 mph - N/A Rain Light Rain Showers
8:30 PM 75.2 °F - 73.4 °F 94% 29.86 in 5.0 mi South 9.2 mph - N/A Rain Light Rain Showers
9:00 PM 75 °F - 73 °F 91% 29.89 in 4 mi SSE 9.2 mph - - Rain Light Rain Showers
9:00 PM 75.2 °F - 73.4 °F 94% 29.89 in 3.1 mi SSE 9.2 mph - N/A Rain Light Rain Showers
9:27 PM 75.2 °F - 73.4 °F 94% 29.89 in 5.6 mi South 9.2 mph - N/A Rain Light Rain Showers
10:00 PM 76 °F - 73 °F 88% 29.91 in - SSE 8.1 mph - -  
10:00 PM 75.2 °F - 73.4 °F 94% 29.89 in 6.2 mi SSE 8.1 mph - N/A   Mostly Cloudy
10:30 PM 77.0 °F - 73.4 °F 89% 29.89 in 6.2 mi South 8.1 mph - N/A   Mostly Cloudy
11:00 PM 75.2 °F - 73.4 °F 94% 29.89 in 5.6 mi SSE 8.1 mph - N/A Rain Light Rain Showers
11:21 PM 75.2 °F - 73.4 °F 94% 29.89 in 3.1 mi SSE 8.1 mph - N/A Rain Light Rain Showers
11:30 PM 75.2 °F - 73.4 °F 94% 29.89 in 3.1 mi SSE 9.2 mph - N/A Rain Light Rain Showers
11:53 PM 75.2 °F - 73.4 °F 94% 29.86 in 5.6 mi SSE 6.9 mph - N/A Rain Light Rain Showers